• Join FlightAware (Why Join?)
  • Login
  • US Flag 
12:54AM EDT


 

Airport Tracker/Info


-or-


 

Live Flight TrackerFlight Track Log ✈ SWA378 ✈ 21-Jun-2013 ✈ KSJC - KONT

Flight Track Log - Related Links

Times and Time Zones

All times are in EDT time to prevent confusion due to time zone crossing. See the SWA378 flight status page for this flight to view local times or setup timezone preferences in your user account.

Time Position Orientation Groundspeed Altitude Reporting Facility
EDT Latitude Longitude Course Direction KTS MPH feet Rate Location/Type
11:10AM 37.3833 -121.9500 322° Northwest 177 204 900  Level Northern Cal TRACON
11:11AM 37.4167 -121.9833 322° Northwest 213 245 3,000 2,100 Climbing Northern Cal TRACON
11:12AM 37.4500 -121.9167 58° Northeast 247 284 5,100 2,040 Climbing Northern Cal TRACON
11:14AM 37.3681 -121.8350 142° Southeast 274 315 8,000 2,280 Climbing Oakland Center
11:15AM 37.3067 -121.7636 137° Southeast 309 356 10,700 2,880 Climbing Oakland Center
11:16AM 37.2317 -121.6783 138° Southeast 356 410 14,000 2,880 Climbing Oakland Center
11:17AM 37.1544 -121.5906 138° Southeast 373 429 16,700 2,760 Climbing Oakland Center
11:18AM 37.0669 -121.4961 139° Southeast 393 452 19,700 2,580 Climbing Oakland Center
11:19AM 36.9844 -121.4039 138° Southeast 397 457 22,000 2,040 Climbing Oakland Center
11:20AM 36.8953 -121.3064 139° Southeast 421 484 23,900 1,920 Climbing Oakland Center
11:21AM 36.8014 -121.2047 139° Southeast 434 499 26,000 1,800 Climbing Oakland Center
11:22AM 36.7067 -121.1036 139° Southeast 446 513 27,700 1,800 Climbing Oakland Center
11:23AM 36.5906 -120.9803 140° Southeast 455 524 29,800 1,800 Climbing Oakland Center
11:24AM 36.4931 -120.8739 139° Southeast 464 534 31,500 1,800 Climbing Oakland Center
11:25AM 36.4042 -120.7581 134° Southeast 463 533 33,500 1,680 Climbing Oakland Center
11:26AM 36.3244 -120.6303 128° Southeast 466 536 35,000 1,260 Climbing Oakland Center
11:27AM 36.2439 -120.5031 128° Southeast 468 539 36,200 960 Climbing Oakland Center
11:28AM 36.1617 -120.3750 128° Southeast 472 543 37,000 360 Climbing Oakland Center
11:29AM 36.0792 -120.2456 128° Southeast 476 548 37,000  Level Oakland Center
11:30AM 35.9950 -120.1153 129° Southeast 481 554 37,000  Level Oakland Center
11:31AM 35.9103 -119.9853 129° Southeast 483 556 37,000  Level Oakland Center
11:32AM 35.8094 -119.8283 128° Southeast 483 556 37,000  Level Oakland Center
11:33AM 35.7242 -119.6992 129° Southeast 483 556 37,000  Level Oakland Center
11:34AM 35.6406 -119.5700 129° Southeast 481 554 37,000 -60 Level Oakland Center
11:35AM 35.5564 -119.4414 129° Southeast 480 552 36,900 -120 Descending Oakland Center
11:36AM 35.4733 -119.3150 129° Southeast 474 545 36,800 -600 Descending Los Angeles Center
11:37AM 35.3906 -119.1903 129° Southeast 471 542 35,800 -1,020 Descending Los Angeles Center
11:38AM 35.3089 -119.0644 128° Southeast 471 542 34,800 -960 Descending Los Angeles Center
11:39AM 35.2261 -118.9408 129° Southeast 470 541 33,900 -960 Descending Los Angeles Center
11:40AM 35.1414 -118.8169 130° Southeast 472 543 32,900 -480 Descending Los Angeles Center
11:41AM 35.0581 -118.6928 129° Southeast 473 544 33,000 -1,200 Climbing Los Angeles Center
11:42AM 34.9553 -118.5400 129° Southeast 482 555 30,500 -2,520 Descending Los Angeles Center
11:43AM 34.8706 -118.4131 129° Southeast 486 559 27,800 -2,400 Descending Los Angeles Center
11:45AM 34.7878 -118.2933 130° Southeast 473 544 25,600 -2,220 Descending Los Angeles Center
11:46AM 34.7097 -118.1808 130° Southeast 451 519 23,300 -2,220 Descending Los Angeles Center
11:47AM 34.6344 -118.0708 130° Southeast 430 495 21,100 -2,280 Descending Los Angeles Center
11:48AM 34.5792 -117.9494 119° Southeast 415 478 18,700 -2,700 Descending Los Angeles Center
11:49AM 34.5444 -117.7897 105° East 411 473 15,500 -2,220 Descending Los Angeles Center
11:50AM 34.4819 -117.6864 126° Southeast 388 447 14,100 -780 Descending Los Angeles Center
11:51AM 34.4239 -117.5961 128° Southeast 347 399 14,000 -420 Descending Los Angeles Center
11:52AM 34.3653 -117.4875 123° Southeast 332 382 13,300 -1,380 Descending Los Angeles Center
11:53AM 34.3075 -117.4208 136° Southeast 292 336 11,200 -2,520 Descending Los Angeles Center
11:54AM 34.2272 -117.4044 170° South 286 329 8,200 -3,060 Descending Los Angeles Center
11:55AM 34.1542 -117.4256 193° South 269 310 4,900 -2,580 Descending Los Angeles Center
11:56AM 34.1000 -117.4500 200° South 230 265 3,800 -1,140 Descending Southern California TRACON
11:57AM 34.0500 -117.4667 195° South 164 189 3,000 -900 Descending Southern California TRACON
11:58AM 34.0500 -117.5167 270° West 142 163 2,000 -900 Descending Southern California TRACON
11:59AM 34.0500 -117.5667 270° West 140 161 1,200 -840 Descending Southern California TRACON